• In Czech Republic
  • List of Countries
  • For 7 days
  • Water Temperature
  • Satellite Maps
  • Weather Map
  • Weather Widgets
  • user-avatar
    Login

    Hourly Weather Uige

    Today, 19 October, Thursday

    Time Temperature Precipitation Wind Pressure Humidity
    00:00 +22°C° 0 mm 1 mps 692 mmHg 95%
    01:00 +21°C° 0 mm 1 mps 692 mmHg 96%
    02:00 +21°C° 0 mm 1 mps 692 mmHg 95%
    03:00 +21°C° 0 mm 1 mps 691 mmHg 95%
    04:00 +21°C° 0 mm 1 mps 691 mmHg 94%
    05:00 +22°C° 0 mm 1 mps 692 mmHg 91%
    06:00 +22°C° 0 mm 1 mps 692 mmHg 88%
    07:00 +23°C° 0 mm 1 mps 693 mmHg 85%
    08:00 +25°C° 0 mm 1 mps 693 mmHg 74%
    09:00 +27°C° 0 mm 1 mps 693 mmHg 64%
    10:00 +30°C° 0 mm 2 mps 693 mmHg 54%
    11:00 +31°C° 0 mm 2 mps 693 mmHg 49%
    12:00 +34°C° 0 mm 2 mps 692 mmHg 45%
    13:00 +35°C° 0 mm 2 mps 692 mmHg 40%
    14:00 +34°C° 0 mm 2 mps 691 mmHg 43%
    15:00 +32°C° 0 mm 2 mps 691 mmHg 46%
    16:00 +31°C° 0 mm 2 mps 690 mmHg 49%
    17:00 +30°C° 0 mm 2 mps 690 mmHg 55%
    18:00 +28°C° 0 mm 2 mps 690 mmHg 60%
    19:00 +26°C° 0 mm 2 mps 690 mmHg 66%
    20:00 +25°C° 0 mm 2 mps 691 mmHg 71%
    21:00 +24°C° 0 mm 2 mps 691 mmHg 76%
    22:00 +23°C° 0 mm 1 mps 692 mmHg 81%
    23:00 +23°C° 0 mm 1 mps 692 mmHg 85%

    Tomorrow, 20 October, Friday

    Time Temperature Precipitation Wind Pressure Humidity
    00:00 +22°C° 0 mm 1 mps 691 mmHg 88%
    01:00 +22°C° 0 mm 1 mps 691 mmHg 91%
    02:00 +22°C° 0.1 mm 1 mps 691 mmHg 92%
    03:00 +22°C° 0.1 mm 1 mps 691 mmHg 92%
    04:00 +21°C° 0.1 mm 1 mps 691 mmHg 92%
    05:00 +22°C° 0.6 mm 1 mps 691 mmHg 90%
    06:00 +22°C° 0.6 mm 1 mps 692 mmHg 88%
    07:00 +22°C° 0.6 mm 1 mps 693 mmHg 86%
    08:00 +24°C° 0.1 mm 1 mps 693 mmHg 80%
    09:00 +25°C° 0.1 mm 1 mps 693 mmHg 73%
    10:00 +27°C° 0.1 mm 1 mps 694 mmHg 67%
    11:00 +29°C° 0 mm 2 mps 693 mmHg 60%
    12:00 +31°C° 0 mm 2 mps 693 mmHg 53%
    13:00 +34°C° 0 mm 2 mps 692 mmHg 46%
    14:00 +32°C° 0.1 mm 2 mps 692 mmHg 48%
    15:00 +31°C° 0.1 mm 2 mps 691 mmHg 51%
    16:00 +31°C° 0.1 mm 2 mps 690 mmHg 53%
    17:00 +29°C° 0.1 mm 2 mps 691 mmHg 59%
    18:00 +27°C° 0.1 mm 2 mps 691 mmHg 64%
    19:00 +26°C° 0.1 mm 1 mps 691 mmHg 70%
    20:00 +25°C° 0 mm 1 mps 692 mmHg 73%
    21:00 +24°C° 0 mm 1 mps 692 mmHg 77%
    22:00 +24°C° 0 mm 1 mps 693 mmHg 80%
    23:00 +23°C° 0 mm 1 mps 692 mmHg 83%

    Day after tomorrow, 21 October, Saturday

    Time Temperature Precipitation Wind Pressure Humidity
    00:00 +23°C° 0 mm 1 mps 692 mmHg 87%
    01:00 +22°C° 0 mm 1 mps 692 mmHg 90%
    02:00 +22°C° 0.4 mm 1 mps 692 mmHg 92%
    03:00 +21°C° 0.4 mm 1 mps 692 mmHg 93%
    04:00 +20°C° 0.4 mm 2 mps 692 mmHg 95%
    05:00 +21°C° 0.3 mm 1 mps 692 mmHg 93%
    06:00 +22°C° 0.3 mm 1 mps 693 mmHg 91%
    07:00 +20°C° 0.3 mm 0 mps 693 mmHg 88%
    08:00 +24°C° 0.1 mm 1 mps 693 mmHg 80%
    09:00 +26°C° 0.1 mm 1 mps 694 mmHg 71%
    10:00 +28°C° 0.1 mm 2 mps 694 mmHg 63%
    11:00 +29°C° 0 mm 2 mps 693 mmHg 57%
    12:00 +31°C° 0 mm 2 mps 692 mmHg 51%
    13:00 +32°C° 0 mm 2 mps 692 mmHg 45%
    14:00 +32°C° 0 mm 2 mps 691 mmHg 45%
    15:00 +32°C° 0 mm 2 mps 691 mmHg 44%
    16:00 +32°C° 0 mm 2 mps 690 mmHg 44%
    17:00 +30°C° 0 mm 1 mps 691 mmHg 51%
    18:00 +28°C° 0 mm 1 mps 691 mmHg 59%
    19:00 +26°C° 0 mm 1 mps 692 mmHg 66%
    20:00 +26°C° 0 mm 2 mps 692 mmHg 69%
    21:00 +25°C° 0 mm 2 mps 692 mmHg 73%
    22:00 +24°C° 0 mm 2 mps 693 mmHg 76%
    23:00 +23°C° 0 mm 2 mps 692 mmHg 80%

    22 October, Sunday

    Time Temperature Precipitation Wind Pressure Humidity
    00:00 +23°C° 0 mm 1 mps 692 mmHg 84%
    01:00 +22°C° 0 mm 1 mps 691 mmHg 88%
    02:00 +22°C° 0 mm 1 mps 691 mmHg 89%
    03:00 +21°C° 0 mm 1 mps 691 mmHg 90%
    04:00 +21°C° 0 mm 1 mps 691 mmHg 91%
    05:00 +21°C° 0 mm 1 mps 692 mmHg 89%
    06:00 +22°C° 0 mm 1 mps 692 mmHg 86%
    07:00 +22°C° 0 mm 1 mps 693 mmHg 83%
    08:00 +26°C° 0.1 mm 1 mps 693 mmHg 70%
    09:00 +29°C° 0.1 mm 1 mps 694 mmHg 58%
    10:00 +32°C° 0.1 mm 1 mps 694 mmHg 45%
    11:00 +34°C° 0 mm 1 mps 693 mmHg 42%
    12:00 +35°C° 0 mm 1 mps 692 mmHg 38%
    13:00 +37°C° 0 mm 1 mps 691 mmHg 34%
    14:00 +35°C° 0 mm 1 mps 691 mmHg 37%
    15:00 +34°C° 0 mm 1 mps 690 mmHg 40%
    16:00 +33°C° 0 mm 1 mps 689 mmHg 42%
    17:00 +31°C° 0.1 mm 1 mps 690 mmHg 48%
    18:00 +29°C° 0.1 mm 1 mps 690 mmHg 53%
    19:00 +28°C° 0.1 mm 1 mps 690 mmHg 58%
    20:00 +27°C° 0 mm 1 mps 691 mmHg 62%
    21:00 +26°C° 0 mm 1 mps 691 mmHg 66%
    22:00 +25°C° 0 mm 1 mps 691 mmHg 70%
    23:00 +24°C° 0 mm 1 mps 691 mmHg 74%

    23 October, Monday

    Time Temperature Precipitation Wind Pressure Humidity
    00:00 +23°C° 0 mm 1 mps 691 mmHg 78%
    01:00 +22°C° 0 mm 1 mps 690 mmHg 83%
    02:00 +22°C° 0 mm 1 mps 690 mmHg 85%
    03:00 +21°C° 0 mm 1 mps 690 mmHg 88%
    04:00 +21°C° 0 mm 1 mps 691 mmHg 91%
    05:00 +21°C° 0 mm 1 mps 691 mmHg 86%
    06:00 +22°C° 0 mm 1 mps 692 mmHg 82%
    07:00 +23°C° 0 mm 1 mps 693 mmHg 78%
    08:00 +26°C° 0.2 mm 1 mps 693 mmHg 67%
    09:00 +29°C° 0.2 mm 1 mps 693 mmHg 56%
    10:00 +32°C° 0.2 mm 1 mps 694 mmHg 45%
    11:00 +33°C° 0 mm 1 mps 693 mmHg 42%
    12:00 +34°C° 0 mm 1 mps 692 mmHg 39%
    13:00 +35°C° 0 mm 1 mps 691 mmHg 37%
    14:00 +34°C° 0 mm 1 mps 691 mmHg 38%
    15:00 +33°C° 0 mm 1 mps 690 mmHg 40%
    16:00 +32°C° 0 mm 1 mps 690 mmHg 42%
    17:00 +30°C° 0 mm 1 mps 690 mmHg 48%
    18:00 +28°C° 0 mm 1 mps 690 mmHg 55%
    19:00 +26°C° 0 mm 1 mps 690 mmHg 62%
    20:00 +26°C° 0 mm 1 mps 690 mmHg 65%
    21:00 +25°C° 0 mm 1 mps 691 mmHg 68%
    22:00 +24°C° 0 mm 1 mps 691 mmHg 71%
    23:00 +24°C° 0 mm 1 mps 690 mmHg 76%

    24 October, Tuesday

    Time Temperature Precipitation Wind Pressure Humidity
    00:00 +23°C° 0 mm 1 mps 690 mmHg 80%
    01:00 +21°C° 0 mm 2 mps 690 mmHg 85%
    02:00 +21°C° 0 mm 2 mps 690 mmHg 87%
    03:00 +22°C° 0 mm 1 mps 690 mmHg 88%
    04:00 +22°C° 0 mm 1 mps 690 mmHg 89%
    05:00 +22°C° 0 mm 1 mps 691 mmHg 87%
    06:00 +22°C° 0 mm 1 mps 691 mmHg 84%
    07:00 +23°C° 0 mm 1 mps 692 mmHg 82%
    08:00 +26°C° 0 mm 1 mps 692 mmHg 70%
    09:00 +29°C° 0 mm 1 mps 692 mmHg 58%
    10:00 +32°C° 0 mm 1 mps 693 mmHg 46%
    11:00 +33°C° 0 mm 1 mps 692 mmHg 45%
    12:00 +33°C° 0 mm 1 mps 691 mmHg 43%
    13:00 +33°C° 0 mm 1 mps 690 mmHg 42%
    14:00 +33°C° 0 mm 1 mps 690 mmHg 44%
    15:00 +32°C° 0 mm 1 mps 690 mmHg 47%
    16:00 +31°C° 0 mm 1 mps 689 mmHg 50%
    17:00 +29°C° 0.5 mm 1 mps 690 mmHg 58%
    18:00 +27°C° 0.5 mm 1 mps 690 mmHg 67%
    19:00 +25°C° 0.5 mm 1 mps 690 mmHg 76%
    20:00 +25°C° 0.5 mm 1 mps 690 mmHg 80%
    21:00 +24°C° 0.5 mm 1 mps 691 mmHg 84%
    22:00 +23°C° 0.5 mm 1 mps 691 mmHg 88%
    23:00 +23°C° 0 mm 1 mps 691 mmHg 90%
    Show more